sat.trackr.live / text

‹ back to catalog

STARLINK-34762

NORAD 65473 · 2025-195R

PAYLOAD ACTIVE UNKNOWN

§ Identity

Operator
Country
US
Launch date
2025-09-03
Launch site
AFETR
Launch vehicle
Mass (kg)
RCS (m²)

Purposes: comms

External: N2YO · Heavens-Above · Gunter

§ Orbital elements

Epoch: 2026-05-24T19:30:44.750880Z

Period
93.84 min
Inclination
53.1586°
Eccentricity
0.0001144
Mean motion
15.34458945 rev/d
Perigee alt
461.7 km
Apogee alt
463.3 km
Semi-major
6,840.7 km
B*
1.4237e-3
RAAN
264.2332°
Arg perigee
88.3673°
Mean anomaly
271.7460°
Rev number
4,163

§ Raw data

STARLINK-347621 65473U 25195R   26144.81301795  .00048124  00000+0  14237-2 0  99952 65473  53.1586 264.2332 0001144  88.3673 271.7460 15.34458945 41631

JSON: /api/v1/satellites/65473 · /tle

For live sub-satellite position, see the globe view (requires WebGL).

§ Visibility from observer

Set your observer location to see the next 7 days of passes ≥ 10°. The values pass through the URL so the page stays shareable.

No JS? Fill the form by hand. The geolocation button needs JavaScript.